Time,TemperatureF,DewpointF,PressureIn,WindDirection,WindDirectionDegrees,WindSpeedMPH,WindSpeedGustMPH,Humidity,HourlyPrecipIn,Conditions,Clouds,dailyrainin,SoftwareType,DateUTC
2013-07-28 00:02:00,65.0,61.0,29.94,NE,37,0.0,1.0,88,0.00,,,0.01,,2013-07-28 05:02:00,
2013-07-28 00:12:00,64.0,61.0,29.95,NE,37,0.0,1.0,89,0.00,,,0.01,,2013-07-28 05:12:00,
2013-07-28 00:22:00,64.0,61.0,29.95,NE,37,0.0,1.0,89,0.00,,,0.01,,2013-07-28 05:22:00,
2013-07-28 00:32:00,64.0,61.0,29.96,NE,37,0.0,1.0,90,0.00,,,0.01,,2013-07-28 05:32:00,
2013-07-28 00:43:00,64.0,61.0,29.96,NE,43,0.0,0.0,91,0.00,,,0.01,,2013-07-28 05:43:00,
2013-07-28 00:52:00,64.0,61.0,29.96,NE,43,0.0,0.0,91,0.00,,,0.01,,2013-07-28 05:52:00,
2013-07-28 01:02:00,63.0,61.0,29.96,NE,43,0.0,0.0,92,0.00,,,0.01,,2013-07-28 06:02:00,
2013-07-28 01:12:00,63.0,61.0,29.96,NE,43,0.0,0.0,93,0.00,,,0.01,,2013-07-28 06:12:00,
2013-07-28 01:22:00,63.0,61.0,29.96,NE,43,0.0,0.0,93,0.00,,,0.01,,2013-07-28 06:22:00,
2013-07-28 01:32:00,63.0,61.0,29.96,NE,43,0.0,0.0,94,0.00,,,0.01,,2013-07-28 06:32:00,
2013-07-28 01:43:00,63.0,61.0,29.96,NE,43,0.0,0.0,94,0.00,,,0.01,,2013-07-28 06:43:00,
2013-07-28 01:52:00,63.0,61.0,29.96,NE,43,0.0,0.0,94,0.00,,,0.01,,2013-07-28 06:52:00,
2013-07-28 02:02:00,62.0,61.0,29.96,NE,43,0.0,0.0,95,0.00,,,0.01,,2013-07-28 07:02:00,
2013-07-28 02:12:00,62.0,61.0,29.97,NE,43,0.0,0.0,95,0.00,,,0.00,,2013-07-28 07:12:00,
2013-07-28 02:22:00,62.0,61.0,29.97,NE,43,0.0,0.0,95,0.00,,,0.00,,2013-07-28 07:22:00,
2013-07-28 02:32:00,62.0,61.0,29.97,NE,43,0.0,0.0,95,0.00,,,0.00,,2013-07-28 07:32:00,
2013-07-28 02:53:00,62.0,61.0,29.97,NE,42,0.0,0.0,95,0.00,,,0.00,,2013-07-28 07:53:00,
2013-07-28 03:02:00,61.0,60.0,29.98,NE,43,0.0,0.0,96,0.00,,,0.00,,2013-07-28 08:02:00,
2013-07-28 03:12:00,61.0,60.0,29.97,NE,43,0.0,0.0,97,0.00,,,0.00,,2013-07-28 08:12:00,
2013-07-28 03:22:00,61.0,60.0,29.97,NE,43,0.0,0.0,97,0.00,,,0.00,,2013-07-28 08:22:00,
2013-07-28 03:33:00,61.0,60.0,29.97,NE,43,0.0,0.0,96,0.00,,,0.00,,2013-07-28 08:33:00,
2013-07-28 03:42:00,61.0,60.0,29.96,NE,42,0.0,0.0,97,0.00,,,0.00,,2013-07-28 08:42:00,
2013-07-28 03:53:00,61.0,60.0,29.96,NE,42,0.0,0.0,97,0.00,,,0.00,,2013-07-28 08:53:00,
2013-07-28 04:02:00,62.0,61.0,29.96,NE,43,0.0,0.0,97,0.00,,,0.00,,2013-07-28 09:02:00,
2013-07-28 04:12:00,62.0,61.0,29.97,NE,43,0.0,0.0,97,0.00,,,0.00,,2013-07-28 09:12:00,
2013-07-28 04:22:00,62.0,61.0,29.97,NE,43,0.0,0.0,97,0.00,,,0.00,,2013-07-28 09:22:00,
2013-07-28 04:32:00,62.0,61.0,29.96,NE,43,0.0,0.0,97,0.00,,,0.00,,2013-07-28 09:32:00,
2013-07-28 04:43:00,62.0,61.0,29.96,NE,43,0.0,0.0,97,0.00,,,0.00,,2013-07-28 09:43:00,
2013-07-28 04:53:00,62.0,61.0,29.96,NE,43,0.0,0.0,97,0.00,,,0.00,,2013-07-28 09:53:00,
2013-07-28 05:02:00,62.0,61.0,29.96,NE,43,0.0,0.0,97,0.00,,,0.00,,2013-07-28 10:02:00,
2013-07-28 05:12:00,62.0,61.0,29.97,NE,43,0.0,0.0,97,0.00,,,0.00,,2013-07-28 10:12:00,
2013-07-28 05:22:00,62.0,61.0,29.97,NE,43,0.0,0.0,97,0.00,,,0.00,,2013-07-28 10:22:00,
2013-07-28 05:33:00,63.0,62.0,29.96,NE,42,0.0,0.0,96,0.00,,,0.00,,2013-07-28 10:33:00,
2013-07-28 05:42:00,63.0,62.0,29.97,NE,43,0.0,0.0,96,0.00,,,0.00,,2013-07-28 10:42:00,
2013-07-28 05:52:00,63.0,62.0,29.97,NE,43,0.0,0.0,96,0.00,,,0.00,,2013-07-28 10:52:00,
2013-07-28 06:12:00,63.0,62.0,29.99,NE,42,0.0,0.0,96,0.00,,,0.00,,2013-07-28 11:12:00,
2013-07-28 06:22:00,63.0,62.0,29.99,NE,42,0.0,0.0,96,0.00,,,0.00,,2013-07-28 11:22:00,
2013-07-28 06:33:00,63.0,62.0,30.00,NE,43,0.0,0.0,95,0.00,,,0.00,,2013-07-28 11:33:00,
2013-07-28 06:43:00,63.0,62.0,30.01,NE,43,0.0,0.0,95,0.00,,,0.00,,2013-07-28 11:43:00,
2013-07-28 06:53:00,63.0,62.0,30.01,NE,43,0.0,0.0,95,0.00,,,0.00,,2013-07-28 11:53:00,
2013-07-28 07:02:00,63.0,62.0,30.01,NE,42,0.0,0.0,95,0.00,,,0.00,,2013-07-28 12:02:00,
2013-07-28 07:12:00,64.0,62.0,30.01,NE,43,0.0,0.0,94,0.00,,,0.00,,2013-07-28 12:12:00,
2013-07-28 07:22:00,64.0,62.0,30.01,NE,43,0.0,0.0,94,0.00,,,0.00,,2013-07-28 12:22:00,
2013-07-28 07:33:00,64.0,62.0,30.00,East,98,0.0,0.0,94,0.00,,,0.00,,2013-07-28 12:33:00,
2013-07-28 07:43:00,64.0,63.0,30.00,NE,37,0.0,0.0,95,0.00,,,0.00,,2013-07-28 12:43:00,
2013-07-28 07:53:00,64.0,63.0,30.00,NE,37,0.0,0.0,95,0.00,,,0.00,,2013-07-28 12:53:00,
2013-07-28 08:02:00,65.0,63.0,30.00,SE,126,0.0,0.0,94,0.00,,,0.00,,2013-07-28 13:02:00,
2013-07-28 08:12:00,65.0,63.0,30.01,SE,126,0.0,0.0,92,0.00,,,0.00,,2013-07-28 13:12:00,
2013-07-28 08:22:00,65.0,63.0,30.01,SE,126,0.0,0.0,92,0.00,,,0.00,,2013-07-28 13:22:00,
2013-07-28 08:32:00,65.0,62.0,30.01,SSE,152,0.0,1.0,89,0.00,,,0.00,,2013-07-28 13:32:00,
2013-07-28 08:43:00,66.0,62.0,30.01,ESE,115,0.0,3.0,87,0.00,,,0.00,,2013-07-28 13:43:00,
2013-07-28 08:53:00,66.0,62.0,30.01,ESE,115,0.0,3.0,87,0.00,,,0.00,,2013-07-28 13:53:00,
2013-07-28 09:02:00,66.0,61.0,30.01,SSE,162,0.0,1.0,84,0.00,,,0.00,,2013-07-28 14:02:00,
2013-07-28 09:12:00,66.0,61.0,30.01,SSE,162,0.0,1.0,84,0.00,,,0.00,,2013-07-28 14:12:00,
2013-07-28 09:23:00,67.0,61.0,30.01,SE,137,0.0,3.0,82,0.00,,,0.00,,2013-07-28 14:23:00,
2013-07-28 09:33:00,67.0,60.0,30.01,SE,127,1.0,3.0,77,0.00,,,0.00,,2013-07-28 14:33:00,
2013-07-28 09:43:00,67.0,60.0,30.01,SE,127,1.0,3.0,77,0.00,,,0.00,,2013-07-28 14:43:00,
2013-07-28 09:53:00,67.0,59.0,30.01,East,94,0.0,5.0,76,0.00,,,0.00,,2013-07-28 14:53:00,
2013-07-28 10:03:00,68.0,60.0,30.01,South,174,1.0,5.0,76,0.00,,,0.00,,2013-07-28 15:03:00,
2013-07-28 10:13:00,68.0,60.0,30.01,South,174,1.0,5.0,76,0.00,,,0.00,,2013-07-28 15:13:00,
2013-07-28 10:22:00,68.0,59.0,30.02,SSE,150,0.0,3.0,74,0.00,,,0.00,,2013-07-28 15:22:00,
2013-07-28 10:32:00,68.0,60.0,30.02,South,179,0.0,5.0,75,0.00,,,0.00,,2013-07-28 15:32:00,
2013-07-28 10:43:00,68.0,60.0,30.02,South,179,0.0,5.0,75,0.00,,,0.00,,2013-07-28 15:43:00,
2013-07-28 10:53:00,68.0,60.0,30.02,East,100,0.0,3.0,76,0.00,,,0.00,,2013-07-28 15:53:00,
2013-07-28 11:02:00,69.0,61.0,30.01,South,187,0.0,5.0,75,0.00,,,0.00,,2013-07-28 16:02:00,
2013-07-28 11:12:00,69.0,61.0,30.01,South,187,0.0,5.0,75,0.00,,,0.00,,2013-07-28 16:12:00,
2013-07-28 11:22:00,69.0,60.0,30.01,SSE,159,3.0,8.0,73,0.00,,,0.00,,2013-07-28 16:22:00,
2013-07-28 11:33:00,69.0,60.0,30.01,ESE,115,1.0,5.0,74,0.00,,,0.00,,2013-07-28 16:33:00,
2013-07-28 11:43:00,69.0,60.0,30.01,ESE,115,1.0,5.0,74,0.00,,,0.00,,2013-07-28 16:43:00,
2013-07-28 11:52:00,69.0,61.0,30.01,South,181,0.0,6.0,75,0.00,,,0.00,,2013-07-28 16:52:00,
2013-07-28 12:02:00,70.0,61.0,30.01,SSW,204,0.0,5.0,74,0.00,,,0.00,,2013-07-28 17:02:00,
2013-07-28 12:12:00,70.0,61.0,30.01,SSW,204,0.0,5.0,74,0.00,,,0.00,,2013-07-28 17:12:00,
2013-07-28 12:23:00,71.0,61.0,30.01,SW,218,2.0,5.0,71,0.00,,,0.00,,2013-07-28 17:23:00,
2013-07-28 12:32:00,72.0,62.0,30.00,South,175,2.0,7.0,70,0.00,,,0.00,,2013-07-28 17:32:00,
2013-07-28 12:43:00,72.0,62.0,30.00,South,175,2.0,7.0,70,0.00,,,0.00,,2013-07-28 17:43:00,
2013-07-28 12:53:00,73.0,61.0,30.01,WSW,242,2.0,4.0,67,0.00,,,0.00,,2013-07-28 17:53:00,
2013-07-28 13:03:00,74.0,60.0,30.00,SE,139,3.0,8.0,62,0.00,,,0.00,,2013-07-28 18:03:00,
2013-07-28 13:12:00,74.0,60.0,30.00,SE,139,3.0,8.0,62,0.00,,,0.00,,2013-07-28 18:12:00,
2013-07-28 13:22:00,74.0,61.0,30.01,SE,143,1.0,7.0,65,0.00,,,0.00,,2013-07-28 18:22:00,
2013-07-28 13:33:00,74.0,61.0,30.01,SE,142,0.0,8.0,65,0.00,,,0.00,,2013-07-28 18:33:00,
2013-07-28 13:43:00,74.0,61.0,30.01,SE,142,0.0,8.0,65,0.00,,,0.00,,2013-07-28 18:43:00,
2013-07-28 13:52:00,74.0,61.0,30.01,SSW,199,2.0,6.0,65,0.00,,,0.00,,2013-07-28 18:52:00,
2013-07-28 14:02:00,75.0,62.0,29.99,SE,133,0.0,5.0,65,0.00,,,0.00,,2013-07-28 19:02:00,
2013-07-28 14:12:00,75.0,62.0,29.99,SE,133,0.0,5.0,65,0.00,,,0.00,,2013-07-28 19:12:00,
2013-07-28 14:22:00,75.0,62.0,30.00,East,98,0.0,2.0,64,0.00,,,0.00,,2013-07-28 19:22:00,
2013-07-28 14:33:00,76.0,63.0,29.99,West,260,0.0,3.0,65,0.00,,,0.00,,2013-07-28 19:33:00,
2013-07-28 14:43:00,76.0,63.0,29.99,West,260,0.0,3.0,65,0.00,,,0.00,,2013-07-28 19:43:00,
2013-07-28 14:52:00,76.0,63.0,29.99,South,181,1.0,4.0,64,0.00,,,0.00,,2013-07-28 19:52:00,
2013-07-28 15:02:00,77.0,64.0,29.99,SSW,208,1.0,5.0,64,0.00,,,0.00,,2013-07-28 20:02:00,
2013-07-28 15:12:00,77.0,64.0,29.99,SSW,208,1.0,5.0,64,0.00,,,0.00,,2013-07-28 20:12:00,
2013-07-28 15:23:00,77.0,64.0,29.99,SW,221,1.0,3.0,64,0.00,,,0.00,,2013-07-28 20:23:00,
2013-07-28 15:33:00,78.0,64.0,30.00,ESE,120,0.0,3.0,63,0.00,,,0.00,,2013-07-28 20:33:00,
2013-07-28 15:43:00,78.0,64.0,30.00,ESE,120,0.0,3.0,63,0.00,,,0.00,,2013-07-28 20:43:00,
2013-07-28 15:53:00,78.0,65.0,29.99,NE,40,1.0,5.0,64,0.00,,,0.00,,2013-07-28 20:53:00,
2013-07-28 16:03:00,78.0,65.0,30.00,North,351,0.0,3.0,65,0.00,,,0.00,,2013-07-28 21:03:00,
2013-07-28 16:13:00,78.0,65.0,30.00,North,351,0.0,3.0,65,0.00,,,0.00,,2013-07-28 21:13:00,
2013-07-28 16:22:00,78.0,65.0,29.99,WNW,293,0.0,1.0,65,0.00,,,0.00,,2013-07-28 21:22:00,
2013-07-28 16:33:00,76.0,65.0,29.99,NE,40,0.0,4.0,69,0.00,,,0.00,,2013-07-28 21:33:00,
2013-07-28 16:44:00,76.0,65.0,29.99,NE,40,0.0,4.0,69,0.00,,,0.00,,2013-07-28 21:44:00,
2013-07-28 16:52:00,75.0,65.0,30.00,North,9,0.0,5.0,70,0.00,,,0.00,,2013-07-28 21:52:00,
2013-07-28 17:02:00,75.0,65.0,30.00,NNE,20,0.0,4.0,70,0.00,,,0.00,,2013-07-28 22:02:00,
2013-07-28 17:12:00,75.0,65.0,30.00,NNE,20,0.0,4.0,70,0.00,,,0.00,,2013-07-28 22:12:00,
2013-07-28 17:22:00,74.0,64.0,30.00,NNE,20,0.0,2.0,72,0.00,,,0.00,,2013-07-28 22:22:00,
2013-07-28 17:32:00,74.0,65.0,29.99,NE,37,0.0,2.0,73,0.00,,,0.00,,2013-07-28 22:32:00,
2013-07-28 17:43:00,74.0,65.0,29.99,NE,37,0.0,2.0,73,0.00,,,0.00,,2013-07-28 22:43:00,
2013-07-28 17:52:00,74.0,65.0,29.99,SE,141,0.0,1.0,74,0.00,,,0.00,,2013-07-28 22:52:00,
2013-07-28 18:03:00,73.0,65.0,29.99,North,9,0.0,1.0,76,0.00,,,0.00,,2013-07-28 23:03:00,
2013-07-28 18:12:00,73.0,65.0,29.99,North,9,0.0,1.0,76,0.00,,,0.00,,2013-07-28 23:12:00,
2013-07-28 18:22:00,72.0,65.0,29.99,North,7,0.0,1.0,78,0.00,,,0.00,,2013-07-28 23:22:00,
2013-07-28 18:32:00,72.0,66.0,30.00,NNE,17,0.0,1.0,82,0.00,,,0.00,,2013-07-28 23:32:00,
2013-07-28 18:43:00,72.0,66.0,30.00,NNE,17,0.0,1.0,82,0.00,,,0.00,,2013-07-28 23:43:00,
2013-07-28 18:53:00,71.0,66.0,30.00,NNE,16,0.0,1.0,83,0.00,,,0.00,,2013-07-28 23:53:00,
2013-07-28 19:03:00,71.0,66.0,30.00,NNE,16,0.0,1.0,85,0.00,,,0.00,,2013-07-29 00:03:00,
2013-07-28 19:22:00,70.0,66.0,30.01,NNE,13,0.0,1.0,86,0.00,,,0.00,,2013-07-29 00:22:00,
2013-07-28 19:32:00,70.0,66.0,30.01,NNE,13,0.0,1.0,88,0.00,,,0.00,,2013-07-29 00:32:00,
2013-07-28 19:43:00,70.0,66.0,30.01,NNE,13,0.0,1.0,88,0.00,,,0.00,,2013-07-29 00:43:00,
2013-07-28 19:52:00,69.0,66.0,30.00,NNE,13,0.0,1.0,89,0.01,,,0.01,,2013-07-29 00:52:00,
2013-07-28 20:02:00,69.0,67.0,30.01,NNE,15,0.0,1.0,92,0.01,,,0.01,,2013-07-29 01:02:00,
2013-07-28 20:14:00,69.0,67.0,30.01,NNE,15,0.0,1.0,92,0.01,,,0.01,,2013-07-29 01:14:00,
2013-07-28 20:28:00,69.0,67.0,30.01,NW,314,0.0,0.0,92,0.01,,,0.01,,2013-07-29 01:28:00,
2013-07-28 20:35:00,69.0,67.0,30.01,NW,323,0.0,0.0,93,0.01,,,0.01,,2013-07-29 01:35:00,
2013-07-28 20:44:00,69.0,67.0,30.01,NW,323,0.0,0.0,93,0.01,,,0.01,,2013-07-29 01:44:00,
2013-07-28 21:05:00,68.0,66.0,30.01,SW,232,0.0,0.0,94,0.00,,,0.01,,2013-07-29 02:05:00,
2013-07-28 21:14:00,68.0,66.0,30.01,SW,232,0.0,0.0,94,0.00,,,0.01,,2013-07-29 02:14:00,
2013-07-28 21:25:00,68.0,67.0,30.00,SW,233,0.0,0.0,95,0.00,,,0.01,,2013-07-29 02:25:00,
2013-07-28 21:36:00,68.0,67.0,29.98,SE,130,0.0,1.0,95,0.00,,,0.01,,2013-07-29 02:36:00,
2013-07-28 21:46:00,68.0,67.0,29.98,SE,130,0.0,1.0,95,0.00,,,0.01,,2013-07-29 02:46:00,
2013-07-28 21:58:00,68.0,66.0,30.00,SE,129,0.0,0.0,94,0.00,,,0.01,,2013-07-29 02:58:00,
2013-07-28 22:03:00,68.0,67.0,30.01,SE,132,0.0,1.0,95,0.00,,,0.01,,2013-07-29 03:03:00,
2013-07-28 22:24:00,68.0,67.0,30.02,West,262,0.0,1.0,95,0.00,,,0.01,,2013-07-29 03:24:00,
2013-07-28 22:48:00,68.0,67.0,30.03,SSE,153,0.0,0.0,95,0.00,,,0.01,,2013-07-29 03:48:00,
2013-07-28 22:58:00,68.0,67.0,30.03,SSE,154,0.0,1.0,96,0.00,,,0.01,,2013-07-29 03:58:00,
2013-07-28 23:02:00,68.0,67.0,30.03,SSE,153,0.0,1.0,96,0.00,,,0.01,,2013-07-29 04:02:00,
2013-07-28 23:12:00,68.0,67.0,30.03,SSE,153,0.0,1.0,96,0.00,,,0.01,,2013-07-29 04:12:00,
2013-07-28 23:22:00,68.0,67.0,30.03,SSE,153,0.0,0.0,96,0.00,,,0.01,,2013-07-29 04:22:00,
2013-07-28 23:32:00,67.0,66.0,30.03,SSE,153,0.0,0.0,96,0.00,,,0.01,,2013-07-29 04:32:00,
2013-07-28 23:43:00,67.0,66.0,30.03,SSE,153,0.0,0.0,96,0.00,,,0.01,,2013-07-29 04:43:00,
2013-07-28 23:53:00,67.0,66.0,30.03,SSE,153,0.0,1.0,96,0.00,,,0.01,,2013-07-29 04:53:00,